Location: Asheville, NC
(35.6000°N, 82.5500°W)
Time: 02:30:17

Oscar 11 - Pass Details

Date: 09 March 2018
Orbit: 613 x 626 km, 97.7° (Epoch: 16 March)

Event Time Altitude Azimuth Distance (km) Brightness Sun altitude
Exits shadow 21:11:02 15° 237° (WSW) 1,662 9.6 -32.5°
Maximum altitude 21:12:45 18° 266° (W) 1,491 9.6 -32.8°
Drops below altitude 10° 21:15:45 10° 311° (NW) 1,972 10.4 -33.4°
Sets 21:18:32 0° 329° (NNW) 2,882 11.2 -33.9°
